www.pogodaiklimat.ru

Погода и климат >> Архив погоды >> Франция >> Виши-Шармей


ПОГОДА в Виши-Шармей

  • Прогноз погоды в Виши-Шармей
  • Монитор погоды в Виши-Шармей

АРХИВ ПОГОДЫ в Виши-Шармей

Время (UTC), дата Ветер
(напр.,м/с)
 
Видим.   Явления Облачность Т
(С)
Тd
(С)
f
(%)
Тe
(С)
Тes
(С)
Комфортность P
(гПа)
Po
(гПа)
Тmin
(С)
Tmax
(С)
R
(мм)
R24
(мм)
S
(см)
10 12.06 ЮЗ 3 20 км н/о +17.6 +7.0 50 +18 +18 1011.5 982.3
11 12.06 Ю 3 20 км н/о +18.0 +7.7 51 +18 +18 1011.6 982.5
12 12.06 Ю 3
{11}
20 км н/о +17.6 +7.3 51 +18 +18 1011.7 982.5 0
14 12.06 Ю 3 20 км н/о +19.2 +6.3 43 +20 +20 1011.4 982.4
15 12.06 Ю 3
{10}
20 км н/о +18.8 +5.6 42 +19 +19 1011.8 982.7 0
16 12.06 ЮЗ 2 20 км н/о +18.2 +6.7 47 +19 +19 1012.1 983.0
17 12.06 ЮЗ 1 19 км н/о +15.7 +8.2 61 +16 +16 1012.9 983.5 0.0
18 12.06 ЮЗ 2
{9}
20 км н/о +16.8 +7.2 53 +17 +17 1013.2 983.9 +13.5 +19.9 0.0 0
19 12.06 Ю 2 18 км н/о +15.7 +6.9 56 +16 +16 1013.7 984.3
20 12.06 ЮЗ 1 20 км н/о +14.2 +8.2 67 +15 +15 1014.6 985.0
21 12.06 Ю 1
{3}
20 км н/о +12.4 +8.5 77 +12 +12 1015.2 985.4 0
22 12.06 Ю 1 20 км н/о +9.4 +7.7 89 +10 +10 1015.5 985.4
23 12.06 Ю 1 20 км н/о +9.8 +7.7 87 +9 +9 1015.6 985.5
00 13.06 ЮЗ 1
{3}
20 км н/о +8.1 +6.7 91 +8 +8 1015.9 985.6 0
01 13.06 З 1 20 км н/о +6.2 +5.5 95 +6 +6 1015.7 985.2
02 13.06 штиль 0 20 км н/о +5.4 +5.0 97 +4 +4 1015.9 985.3
03 13.06 штиль 0
{1}
20 км н/о +4.7 +4.4 98 +3 +3 1015.8 985.1 0
04 13.06 штиль 0 19 км н/о +4.3 +4.0 98 +3 +3 1016.0 985.3
05 13.06 штиль 0 20 км н/о +6.4 +6.3 99 +5 +5 1016.1 985.6
06 13.06 Ю 1
{4}
20 км н/о +10.6 +7.8 83 +10 +10 1015.3 985.3 +4.1 +17.6 0
07 13.06 Ю 1 20 км н/о +14.3 +8.9 70 +15 +15 1015.0 985.4
08 13.06 Ю 1 20 км н/о +16.8 +8.2 57 +18 +18 1014.4 985.1
09 13.06 ЮВ 2
{5}
20 км н/о +19.7 +6.1 41 +21 +21 комфорт 1013.5 984.5 0
10 13.06 ЮВ 2 20 км н/о +22.8 +5.2 32 +23 +23 комфорт 1012.7 984.0
11 13.06 Ю 2 20 км н/о +24.3 +4.1 27 +24 +24 комфорт 1011.9 983.3
12 13.06 Ю 3
{9}
19 км н/о +25.5 +4.6 26 +25 +25 комфорт 1010.7 982.3 0
13 13.06 Ю 2 20 км н/о +25.9 +2.5 22 +25 +25 комфорт 1010.0 981.6
14 13.06 Ю 1 20 км н/о +26.0 +5.0 26 +25 +25 комфорт 1009.8 981.5
15 13.06 С 2
{8}
20 км н/о +24.8 +6.5 31 +25 +25 комфорт 1009.7 981.3 0
16 13.06 С 2 20 км н/о +24.7 +7.3 33 +25 +25 комфорт 1009.5 981.1
17 13.06 С 1 20 км н/о +24.3 +9.8 40 +25 +25 комфорт 1009.5 981.0
18 13.06 С 1
{4}
19 км н/о +25.2 +9.5 37 +26 +26 жарко 1009.6 981.2 +10.7 +27.3 0
19 13.06 СЗ 1 20 км н/о +21.6 +12.4 56 +24 +24 комфорт 1010.5 981.8
20 13.06 В 1 20 км н/о +17.2 +12.5 74 +19 +19 1011.6 982.4
21 13.06 СЗ 1
{2}
20 км н/о +14.5 +12.4 87 +16 +16 1012.6 983.1 0
22 13.06 штиль 0 20 км н/о +12.9 +11.5 91 +12 +12 1012.9 983.2
23 13.06 З 1 20 км н/о +11.6 +10.5 93 +12 +12 1012.6 982.8
00 14.06 С 1
{2}
20 км н/о +10.6 +9.8 95 +11 +11 1011.9 982.0 0
01 14.06 С 1 20 км н/о +10.5 +9.9 96 +11 +11 1012.0 982.1
02 14.06 С 1 20 км н/о +11.6 +10.0 90 +12 +12 1012.8 983.0
03 14.06 СВ 1
{3}
20 км н/о +13.1 +11.0 87 +14 +14 1013.6 983.9 0
04 14.06 З 1 20 км н/о +12.9 +11.5 91 +14 +14 1015.1 985.4
05 14.06 Ю 1 20 км н/о +12.4 +11.3 93 +13 +13 1014.9 985.1
06 14.06 Ю 1
{3}
20 км н/о +14.1 +12.3 89 +15 +15 1015.1 985.5 +10.2 +25.1 0
07 14.06 штиль 0 20 км н/о +16.0 +12.0 77 +16 +16 1015.4 986.0
08 14.06 С 1 20 км н/о +16.3 +12.1 76 +18 +18 1014.1 984.8
09 14.06 С 1
{5}
20 км н/о +16.6 +12.1 75 +17 +17 1013.9 984.6 0
10 14.06 З 1 20 км н/о +16.6 +12.7 78 +18 +18 1014.1 984.8
11 14.06 Ю 1 20 км н/о +17.5 +12.4 72 +19 +19 1013.7 984.5
12 14.06 Ю 2
{6}
19 км дождь н/о +16.9 +13.6 81 +17 +17 1014.4 985.1 0.0 0
13 14.06 Ю 1 20 км н/о +17.0 +14.3 84 +18 +18 1012.7 983.5 0.6
14 14.06 З 1 20 км н/о +16.8 +14.3 85 +18 +18 1011.5 982.3 0.0
15 14.06 Ю 1
{4}
20 км н/о +17.1 +14.6 85 +19 +19 1011.9 982.7 0.8 0
16 14.06 ЮВ 1 17 км слаб. дождь н/о +16.3 +15.0 92 +17 +17 1011.7 982.5 0.6
17 14.06 штиль 0 6000 м слаб. дождь н/о +15.7 +15.1 96 +15 +15 1011.7 982.4 3
18 14.06 штиль 0
{2}
6000 м слаб. дождь н/о +15.5 +15.0 97 +15 +15 1012.0 982.7 +14.1 +17.8 5 0
19 14.06 ЮЗ 1 5000 м слаб. дождь н/о +15.3 +15.0 98 +16 +16 1012.7 983.3 2
20 14.06 ЮЗ 1 4200 м дождь н/о +14.9 +14.4 97 +16 +16 1014.5 985.0 4
21 14.06 Ю 1
{7}
4100 м дождь н/о +14.6 +14.1 97 +16 +16 1014.2 984.7 14 0
22 14.06 Ю 1 14 км н/о +14.5 +14.2 98 +15 +15 1013.8 984.3 2
23 14.06 ЮЗ 1 12 км н/о +13.5 +13.2 98 +14 +14 1014.2 984.6
00 15.06 Ю 1
{4}
8000 м н/о +13.7 +13.4 98 +15 +15 1015.0 985.4 2 0
01 15.06 Ю 1 2900 м дымка н/о +13.0 +12.7 98 +13 +13 1015.4 985.7
02 15.06 штиль 0 300 м туман н/о +12.6 +12.4 99 +12 +12 1015.7 985.9
03 15.06 Ю 1
{2}
6000 м н/о +13.0 +12.8 99 +14 +14 1016.1 986.4 0
04 15.06 Ю 1 18 км н/о +12.7 +12.5 99 +13 +13 1016.4 986.6
05 15.06 Ю 1 20 км н/о +13.3 +13.1 99 +13 +13 1016.5 986.8
06 15.06 Ю 1
{4}
20 км н/о +14.1 +13.8 98 +14 +14 1017.1 987.5 +12.5 +15.6 16 0
07 15.06 Ю 2 20 км н/о +15.0 +14.2 95 +15 +15 1017.7 988.1
08 15.06 Ю 1 20 км н/о +16.0 +14.2 89 +17 +17 1017.9 988.4
09 15.06 ЮВ 1
{3}
20 км н/о +17.0 +14.3 84 +19 +19 1018.3 988.9 0
10 15.06 ЮЗ 1 18 км слаб. дождь н/о +16.5 +14.7 89 +18 +18 1018.4 989.0 0.2
11 15.06 В 1 4800 м дождь н/о +15.8 +15.0 95 +17 +17 1018.3 988.8 4
12 15.06 СЗ 1
{3}
19 км н/о +17.0 +15.2 89 +18 +18 1018.5 989.1 5 0
13 15.06 В 1 20 км н/о +17.9 +13.8 77 +20 +20 1018.6 989.3
14 15.06 СЗ 2 9000 м слаб. дождь н/о +14.6 +13.3 92 +14 +14 1019.1 989.5 2
15 15.06 СЗ 1
{7}
20 км н/о +15.2 +12.5 84 +16 +16 1019.9 990.3 2 0
16 15.06 СЗ 1 20 км н/о +17.4 +12.1 71 +18 +18 1019.7 990.3
17 15.06 СЗ 1 20 км н/о +18.1 +10.2 60 +19 +19 1020.0 990.6
18 15.06 штиль 0
{4}
20 км н/о +17.1 +11.4 69 +17 +17 1020.5 991.0 +13.9 +18.6 0
19 15.06 Ю 1 20 км н/о +16.3 +11.7 74 +18 +18 1020.4 990.9
20 15.06 штиль 0 20 км н/о +14.5 +12.5 88 +14 +14 1021.1 991.4
21 15.06 штиль 0
{1}
17 км н/о +11.8 +11.0 95 +11 +11 1021.9 991.9 0
22 15.06 ЮЗ 1 16 км н/о +10.6 +10.1 97 +11 +11 1022.5 992.3
23 15.06 Ю 1 18 км н/о +11.0 +10.7 98 +11 +11 1022.8 992.6
00 16.06 Ю 1
{4}
19 км н/о +11.6 +11.3 98 +11 +11 1022.9 992.8 0
01 16.06 Ю 1 16 км н/о +11.3 +10.8 97 +11 +11 1023.0 992.9
02 16.06 ЮЗ 1 9000 м н/о +9.6 +9.1 97 +10 +10 1023.3 993.0
03 16.06 ЮЗ 1
{2}
5000 м н/о +8.3 +8.0 98 +8 +8 1023.6 993.1 0
04 16.06 З 1 8000 м н/о +7.1 +6.8 98 +7 +7 1024.0 993.4
05 16.06 штиль 0 3200 м дымка н/о +8.4 +8.3 99 +7 +7 1024.0 993.5
06 16.06 Ю 1
{2}
19 км н/о +11.6 +10.8 95 +11 +11 1023.9 993.8 +7.1 +17.1 0
07 16.06 ЮВ 1 20 км н/о +15.5 +11.5 77 +17 +17 1023.8 994.1
08 16.06 В 1 20 км н/о +16.5 +9.9 65 +18 +18 1023.4 993.8
09 16.06 ЮВ 1
{3}
19 км н/о +18.0 +10.8 63 +20 +20 1022.9 993.5 0
10 16.06 Ю 1 19 км н/о +19.5 +9.9 54 +22 +22 комфорт 1022.6 993.3
11 16.06 СВ 1 20 км н/о +20.4 +9.3 49 +23 +23 комфорт 1022.1 992.9
12 16.06 СВ 1
{5}
19 км н/о +20.7 +9.3 48 +23 +23 комфорт 1021.7 992.5 0
13 16.06 С 1 20 км н/о +21.6 +10.4 49 +23 +23 комфорт 1021.1 992.1
14 16.06 СВ 2 20 км н/о +22.2 +10.7 48 +24 +24 комфорт 1020.7 991.7
15 16.06 С 2
{6}
20 км н/о +22.5 +11.6 50 +25 +25 комфорт 1020.0 991.1 0
16 16.06 СВ 2 20 км н/о +22.8 +10.2 45 +25 +25 комфорт 1019.8 990.9
17 16.06 С 2 20 км н/о +22.8 +11.2 48 +25 +25 комфорт 1019.5 990.6
18 16.06 СВ 2
{6}
20 км н/о +22.5 +12.4 53 +25 +25 комфорт 1019.3 990.4 +11.6 +23.2 0
19 16.06 С 1 20 км н/о +20.4 +12.4 60 +24 +24 комфорт 1019.5 990.4
20 16.06 З 1 20 км н/о +15.6 +12.7 83 +17 +17 1020.2 990.6
21 16.06 штиль 0
{1}
20 км н/о +13.2 +12.1 93 +13 +13 1020.5 990.7 0
22 16.06 штиль 0 20 км н/о +12.1 +11.5 96 +11 +11 1020.8 990.8
23 16.06 штиль 0 17 км н/о +11.1 +10.6 97 +10 +10 1020.6 990.5
00 17.06 штиль 0
{1}
18 км н/о +10.8 +10.5 98 +10 +10 1020.6 990.5 0
01 17.06 штиль 0 15 км н/о +10.0 +9.7 98 +9 +9 1020.5 990.3
02 17.06 штиль 0 9000 м н/о +9.1 +9.0 99 +8 +8 1020.2 989.9
03 17.06 штиль 0 8000 м н/о +8.1 +8.0 99 +7 +7 1020.1 989.7 0
04 17.06 штиль 0 10 км н/о +7.9 +7.8 99 +7 +7 1020.2 989.8
05 17.06 штиль 0 16 км н/о +9.8 +9.8 100 +9 +9 1020.2 990.0
06 17.06 Ю 1
{3}
19 км н/о +12.6 +11.8 95 +12 +12 1019.9 990.0 +7.7 +22.5 0
07 17.06 Ю 1 20 км н/о +15.6 +11.8 78 +16 +16 1019.4 989.8
08 17.06 ЮВ 1 20 км н/о +18.3 +12.7 70 +20 +20 1018.9 989.6
09 17.06 С 1
{2}
20 км н/о +21.0 +12.4 58 +25 +25 комфорт 1018.2 989.2 0
10 17.06 СВ 1 20 км н/о +22.7 +13.7 57 +26 +26 жарко 1017.5 988.7
11 17.06 С 1 20 км н/о +24.2 +12.8 49 +26 +26 жарко 1017.0 988.3
12 17.06 СВ 1
{6}
20 км н/о +24.5 +14.6 54 +27 +27 жарко 1016.6 988.0 0
13 17.06 СВ 2 20 км н/о +26.1 +12.5 43 +28 +28 жарко 1016.0 987.6
14 17.06 СВ 1 20 км н/о +26.3 +12.4 42 +28 +28 жарко 1015.5 987.1
15 17.06 В 1
{7}
18 км н/о +27.2 +10.0 34 +28 +28 жарко 1014.7 986.4 0
16 17.06 СВ 2
{5}
20 км н/о +27.8 +11.4 36 +29 +29 жарко 1014.3 986.0
17 17.06 СВ 1 20 км н/о +27.3 +12.1 39 +29 +29 жарко 1014.0 985.7
18 17.06 С 2
{4}
20 км н/о +26.6 +11.5 39 +28 +28 жарко 1014.2 985.8 +12.5 +27.8 0
19 17.06 СВ 1 20 км н/о +24.4 +13.0 49 +26 +26 жарко 1014.4 985.8
20 17.06 штиль 0 20 км н/о +17.9 +13.8 77 +18 +18 1015.2 986.0
21 17.06 ЮЗ 1
{2}
20 км н/о +15.5 +13.5 88 +17 +17 1015.8 986.3 0
22 17.06 штиль 0 20 км н/о +14.3 +13.2 93 +14 +14 1015.8 986.2
23 17.06 штиль 0 20 км н/о +13.3 +12.4 94 +13 +13 1015.8 986.1
00 18.06 штиль 0
{1}
20 км н/о +12.6 +11.8 95 +12 +12 1015.8 986.0 0
01 18.06 штиль 0 20 км н/о +12.0 +11.5 97 +11 +11 1015.5 985.7
02 18.06 штиль 0 19 км н/о +11.3 +10.8 97 +11 +11 1015.3 985.4
03 18.06 Ю 1
{3}
20 км н/о +11.4 +11.1 98 +11 +11 1015.1 985.2 0
04 18.06 Ю 1 20 км н/о +11.9 +11.6 98 +12 +12 1015.0 985.2
05 18.06 Ю 1 20 км н/о +13.9 +13.1 95 +15 +15 1014.7 985.1
06 18.06 Ю 1
{4}
20 км н/о +16.2 +13.5 84 +17 +17 1014.3 985.0 +11.1 +26.7 0
07 18.06 Ю 2 20 км н/о +18.0 +14.1 78 +19 +19 1014.1 984.9
08 18.06 Ю 2 20 км н/о +20.8 +14.9 69 +25 +25 комфорт 1013.5 984.6
09 18.06 ЮВ 1
{4}
20 км н/о +24.1 +15.8 60 +27 +27 жарко 1012.8 984.3 0
10 18.06 Ю 2 20 км н/о +27.9 +13.0 40 +30 +30 жарко 1012.1 983.9
11 18.06 Ю 2 20 км н/о +28.8 +12.2 36 +30 +30 жарко 1011.8 983.7
12 18.06 Ю 1
{4}
20 км н/о +30.9 +11.3 30 +31 +31 жарко 1011.1 983.2 0
13 18.06 СВ 1 19 км н/о +30.4 +9.8 28 +30 +30 жарко 1010.5 982.6
14 18.06 В 1 20 км н/о +29.9 +9.4 28 +30 +30 жарко 1010.3 982.3
15 18.06 В 1
{4}
20 км н/о +30.0 +11.5 32 +31 +31 жарко 1009.6 981.7 0
16 18.06 СВ 1 19 км н/о +30.6 +13.4 35 +32 +32 жарко 1008.9 981.1
17 18.06 В 1 20 км н/о +31.1 +12.0 31 +32 +32 жарко 1008.4 980.6
18 18.06 штиль 0
{4}
20 км н/о +27.7 +17.2 53 +32 +32 очень
душно
1008.6 980.6 +16.3 +31.6 0
19 18.06 Ю 1 20 км н/о +26.9 +14.6 47 +29 +29 жарко 1008.6 980.5
20 18.06 Ю 1 19 км н/о +25.1 +12.0 44 +27 +27 жарко 1009.3 980.9
21 18.06 Ю 2
{6}
20 км н/о +25.3 +7.4 32 +25 +25 комфорт 1009.8 981.4 0
22 18.06 Ю 2 20 км н/о +24.5 +5.8 30 +24 +24 комфорт 1009.8 981.3
23 18.06 Ю 2 20 км н/о +23.8 +4.7 29 +24 +24 комфорт 1009.4 980.9
00 19.06 Ю 2
{7}
20 км н/о +22.8 +4.3 30 +23 +23 комфорт 1009.3 980.7 0
01 19.06 Ю 2 20 км н/о +22.7 +4.2 30 +23 +23 комфорт 1009.3 980.7
02 19.06 ЮЗ 1 20 км н/о +20.3 +6.2 40 +22 +22 комфорт 1010.3 981.4 0.2
03 19.06 З 1
{11}
20 км н/о +20.6 +9.5 49 +24 +24 комфорт 1011.6 982.7 0.2 0
05 19.06 С 2 20 км н/о +18.4 +11.9 66 +20 +20 1009.4 980.4 0.0
06 19.06 В 1
{11}
20 км н/о +19.1 +12.6 66 +21 +21 комфорт 1010.5 981.5 +18.4 +28.0 0.2 0
07 19.06 Ю 1 19 км н/о +20.3 +12.5 61 +24 +24 комфорт 1011.3 982.4
08 19.06 Ю 2 19 км н/о +22.4 +11.8 51 +25 +25 комфорт 1011.1 982.4 0.0

 

Местоположение метеостанции Виши-Шармей (Франция): широта 46.17 долгота 3.40 высота над уровнем моря 251 м.

В архиве по умолчанию представлена погода в Виши-Шармей за последнюю неделю. Архивные данные за месяц целиком и за предыдущие месяцы, начиная с января 2011 года, Вы можете получить, выбрав интересующий диапазон дат из раскрывающегося списка и нажав кнопку "Ввод!".


*Определитесь, кто Вы:
робот инопланетянин человек

Внимание! Время в таблицах - всемирное. Для получения местного времени необходимо прибавить поправку, которая равна 1 ч.

Смотрите также архив погоды в соседних городах и на ближайших метеорологических станциях:

Погода в Клермон-Ферране (Франция) (47 км)
Погода в Сен-Яне (Франция) (55 км)
Погода в Ле Соваже (Франция) (80 км)
Погода в Невере (Франция) (95 км)
Погода в Сен-Этьене (Франция) (100 км)
Погода в Маконе (Франция) (109 км)
Погода в Сен-Лоране (Франция) (112 км)
Погода в Аворе (Франция) (114 км)
Погода в Ле-Пюи (Франция) (125 км)
Погода в Бурже (Франция) (127 км)

Пояснения к столбцам:

Ветер - указаны скорость ветра в м/с - средняя за 10 мин, порывы в срок и между сроками (в фигурных скобках) и направление, откуда дует ветер: С - северный, СВ - северо-восточный, В - восточный, ЮВ - юго-восточный, Ю - южный, ЮЗ - юго-западный, З - западный, СЗ - северо-западный.
Видимость - горизонтальная дальность видимости в метрах или километрах. При видимости от 1 до 10 км при отсутствии осадков обычно наблюдается дымка, при ухудшении видимости до 1 км и менее - туман. В сухую погоду видимость может ухудшаться дымом, пылью или мглою.
Явления - указаны атмосферные явления, наблюдавшиеся в срок или в последний час перед сроком; фигурными скобками обозначены явления, наблюдавшиеся между сроками (за 1-3 часа до срока); квадратными скобками обозначены град или гололедные отложения с указанием их диаметра в мм.
Облачность - указаны через наклонную черту общая и нижняя облачность в баллах и высота нижней границы облаков в метрах; квадратными скобками обозначены формы облаков: Ci - перистые, Cs - перисто-слоистые, Cc - перисто-кучевые, Ac - высококучевые, As - высокослоистые, Sc - слоисто-кучевые, Ns - слоисто-дождевые, Cu - кучевые, Cb - кучево-дождевые. Подробнее классификацию облаков см. в Атласе облаков (PDF).
T - Температура воздуха - температура, измеренная на высоте 2 м над землей.
Td - Температура точки росы - температура, при понижении до которой содержащийся в воздухе водяной пар достигнет насыщения.
f - Относительная влажность воздуха - влажноcть воздуха, измеренная на высоте 2 м над землей.
Te - Эффективная температура - температура, которую ощущает одетый по сезону человек в тени. Характеристика душности погоды. При расчете учитывается влияние влажности воздуха и скорости ветра на теплоощущения человека.
Tes - Эффективная температура на солнце - температура, которую ощущает человек, с поправкой на солнечный нагрев. Характеристика знойности погоды. Зависит от высоты солнца над горизонтом, облачности и скорости ветра. Ночью, в пасмурную погоду, а также при ветре 12 м/с и более поправка равна нулю.
P - Атмосферное давление - приведенное к уровню моря атмосферное давление.
Po - Атмосферное давление - измеренное на уровне метеостанции атмосферное давление.
Tmin - Минимальная температура - минимум температуры воздуха на высоте 2 м над землей.
Tmax - Максимальная температура - максимум температуры воздуха на высоте 2 м над землей.
R - Количество осадков - Количество выпавших осадков за период времени, мм. При наведении курсора мыши на число - период времени, за который выпало указанное количество осадков.
R24 - Количество осадков - Количество выпавших осадков за 24 часа, мм.
S - Снежный покров - Высота снежного покрова, см. При наведении курсора мыши на число - состояние снежного покрова и степень покрытия местности в баллах.